This is the latest recevied weather packets stored in our database for station/object KA3RQR. If no packets are shown the sender has not sent any weather packets the latest 10 day(s).
| Time | Temp. | Humidity | Pressure | Rain* | Wind** | Luminosity | Snow |
|---|---|---|---|---|---|---|---|
| 1777951974 | 18.33° C | 59% | 1011.5 hPa | 0 mm | - | 0 W/m² | - |
| 1777951672 | 17.78° C | 59% | 1011.4 hPa | 0 mm | - | 0 W/m² | - |
| 1777951367 | 17.78° C | 59% | 1011.4 hPa | 0 mm | - | 0 W/m² | - |
| 1777951065 | 18.33° C | 58% | 1011.2 hPa | 0 mm | - | 0 W/m² | - |
| 1777950761 | 18.33° C | 58% | 1011.4 hPa | 0 mm | - | 0 W/m² | - |
| 1777950458 | 18.33° C | 57% | 1011.3 hPa | 0 mm | - | 0 W/m² | - |
| 1777950155 | 18.33° C | 57% | 1011.1 hPa | 0 mm | - | 0 W/m² | - |
| 1777949850 | 18.89° C | 55% | 1011.1 hPa | 0 mm | - | 0 W/m² | - |
| 1777949549 | 18.33° C | 55% | 1011.2 hPa | 0 mm | - | 0 W/m² | - |
| 1777949247 | 18.33° C | 55% | 1011 hPa | 0 mm | - | 0 W/m² | - |
| 1777948944 | 18.89° C | 54% | 1010.9 hPa | 0 mm | - | 0 W/m² | - |
| 1777948641 | 18.89° C | 54% | 1011.3 hPa | 0 mm | - | 0 W/m² | - |
| 1777948338 | 19.44° C | 53% | 1011.1 hPa | 0 mm | - | 0 W/m² | - |
| 1777948036 | 19.44° C | 53% | 1011.1 hPa | 0 mm | - | 0 W/m² | - |
| 1777947732 | 19.44° C | 53% | 1011.2 hPa | 0 mm | - | 0 W/m² | - |
| 1777947429 | 19.44° C | 52% | 1011 hPa | 0 mm | - | 0 W/m² | - |
| 1777947126 | 20° C | 51% | 1011 hPa | 0 mm | - | 0 W/m² | - |
| 1777946822 | 20° C | 51% | 1011 hPa | 0 mm | - | 0 W/m² | - |
| 1777946517 | 20° C | 50% | 1011.1 hPa | 0 mm | - | 0 W/m² | - |
| 1777946215 | 20° C | 50% | 1010.9 hPa | 0 mm | - | 0 W/m² | - |
| 1777945911 | 20° C | 50% | 1010.7 hPa | 0 mm | - | 0 W/m² | - |
| 1777945608 | 20° C | 51% | 1010.9 hPa | 0 mm | - | 0 W/m² | - |
| 1777945305 | 19.44° C | 51% | 1010.8 hPa | 0 mm | - | 0 W/m² | - |
| 1777945003 | 19.44° C | 50% | 1011.1 hPa | 0 mm | - | 0 W/m² | - |
| 1777944699 | 20° C | 52% | 1010.5 hPa | 0 mm | - | 0 W/m² | - |
* Rain latest hour (hover to see other rain measurements)
** Current wind speed in m/s (hover to see current wind gust speed)